SCOUT A R/B, 1865

Orbit data source: Space-Track

SCOUT A R/B, 1865 is space debris in LEO originally from a launch on Wed, 22 Dec 1965 UTC launched from the Air Force Western Test Range (AFWTR). Debris objects in space refer to the collection of defunct objects orbiting the Earth. Examples of debris include non-operational satellites, rocket bodies, and fragments generated from explosions, collisions, or faulty payload assembly.

Loading next visibility...
Identifier
1865, 1965-109B
Orbit
LEO
Last TLE update
8 hours ago
Origin
Manufacturer
ABL
Mission
Spacecraft
Bus & Motor
ALTAIR, Unknown motor
Mass
33 kg wet, 33 kg dry
Launch date (UTC)
1965-12-22 (60 years ago)
Launch vehicle
Unknown
Launch site
Air Force Western Test Range (AFWTR)
Object type
Payload
Rocket body
Debris
Shape & HBR
Cyl, 1.5 m
Radar Cross Section
0.687 m², Medium (>0.1 m² and < 1m²)

Expand to show TLE details & history

TLE from 8 hours ago
0 SCOUT A R/B
1 01865U 65109B   25182.57409573  .00000090  00000-0  76478-4 0  9994
2 01865  89.0663 283.6795 0110156 325.6825  33.7256 13.76734970985385
Epoch: 2025-07-01T13:46Z
TLE epoch observation values (Epoch: 2025-07-01T13:46:41.871Z)
Latitude
-0.00007°
Longitude
157.13744°
Altitude
911.375 km
Speed
7.43 km/s
True Right ascension
18h 54m 43s
True Declination
0° 00' 00"
Sunlit
Object was in full shadow at epoch
Visualization orbit readout
Latitude
-66.68544°
Longitude
154.94706°
Altitude
931.273 km
Speed
7.42 km/s
Apparent Right ascension
20h 43m 43s
Apparent Declination
-56° 10' 06"
Sunlit
Object is in full shadow
Visualization observer readout
Local Sidereal Time
09:51:23
Azimuth
151.252° SSE
Elevation
-70.315°
Doppler factor
1
Orbital elements
Apogee altitude
1,053.475 km
Perigee altitude
891.531 km
Semi-major axis
7,350.64 km
Eccentricity
0.01102
Inclination
89.0663°
RAAN
283.6795°
Arg. of periapsis
325.6825°
True anomaly
Unknown
Mean anomaly
33.7256°
Eccentric anomaly
Unknown
Mean motion
3.44394 °/min
Orbital period
104.53 mins
BSTAR
0.000076478
Loading maneuver chart data...
Loading SW <> Apogee altitude chart data...
Loading historical data...
Loading historical data...
Loading historical data...
Loading historical data...
Loading historical data...
Loading historical data...
Loading historical data...

SCOUT A R/B Visibility forecast

Observer location: undefined°, undefined°

Span
Click to sort rows by Start time (UTC) header in descending order
Start Az.
Max El. time (UTC)
Max El. Az.
Max El.
End time (UTC)
End Az.
6 mins2025-07-02 05:38:00.749Z102.267° ESE2025-07-02 05:41:00.749Z71.639° E14.27°2025-07-02 05:44:00.749Z41.467° NE
10 mins2025-07-02 07:20:00.749Z184.757° SSW2025-07-02 07:25:00.749Z301.334° NW43.96°2025-07-02 07:30:00.749Z355.189° N
11 mins2025-07-02 18:17:00.749Z20.321° NNE2025-07-02 18:22:00.749Z83.838° E33.214°2025-07-02 18:28:00.749Z153.004° SSE
10 mins2025-07-02 20:02:00.749Z334.328° NNW2025-07-02 20:06:00.749Z287.981° WNW27.742°2025-07-02 20:12:00.749Z222.053° SW
|